BAW172 KEWR-EGLL

Flight info

Callsign BAW172
Flight time N/A
Altitude 35000
Route DCT MERIT DCT HFD DCT PUT DCT BOS DCT BRADD N261B NICSO/M084F370 DCT 48N050W 50N040W 52N030W 53N020W DCT MALOT DCT GISTI/N0482F370 DCT ENJEX DCT AVZAC DCT INFEC DCT JETZI DCT AMFUL DCT ORZEB/N0452F230 P2 SIRIC SIRIC1H
Aircraft B77W/H-SDE1E2E3FGHIJ2J3J4J5M1RWXY/LB1D1

Departure

Time 2026-05-04 07:01
Airport Newark Liberty International Airport (KEWR)

Arrival

Time N/A
Airport London Heathrow Airport (EGLL)
Time Latitude Longitude Altitude Speed Heading
2026-05-04 06:38 40.68928 -74.17539 20 ft 0 kts 24°
2026-05-04 06:50 40.68887 -74.17604 20 ft 2 kts 101°
2026-05-04 06:51 40.68890 -74.17618 20 ft 0 kts 116°
2026-05-04 06:51 40.68892 -74.17622 20 ft 0 kts 117°
2026-05-04 06:55 40.68876 -74.17585 20 ft 6 kts 118°
2026-05-04 06:55 40.68858 -74.17539 20 ft 5 kts 116°
2026-05-04 06:55 40.68835 -74.17471 20 ft 13 kts 116°
2026-05-04 06:56 40.68796 -74.17345 20 ft 11 kts 80°
2026-05-04 06:57 40.69867 -74.16631 20 ft 25 kts 26°
2026-05-04 06:58 40.70000 -74.16544 20 ft 14 kts 26°
2026-05-04 06:58 40.70058 -74.16466 20 ft 11 kts 87°
2026-05-04 06:58 40.70036 -74.16399 20 ft 6 kts 161°
2026-05-04 06:58 40.69998 -74.16399 20 ft 4 kts 193°
2026-05-04 06:59 40.69937 -74.16425 20 ft 18 kts 201°
2026-05-04 06:59 40.69751 -74.16537 20 ft 43 kts 210°
2026-05-04 06:59 40.69282 -74.16846 20 ft 106 kts 206°
2026-05-04 06:59 40.68438 -74.17381 21 ft 161 kts 207°
2026-05-04 07:01 40.59983 -74.26361 2502 ft 346 kts 249°
2026-05-04 07:01 40.59238 -74.29278 2474 ft 329 kts 261°
2026-05-04 07:02 40.59053 -74.32204 2495 ft 313 kts 269°
2026-05-04 07:02 40.59018 -74.35004 2707 ft 305 kts 270°
2026-05-04 07:02 40.58997 -74.37750 3216 ft 292 kts 270°
2026-05-04 07:02 40.59258 -74.40329 3677 ft 282 kts 291°
2026-05-04 07:03 40.60340 -74.42438 4286 ft 280 kts 317°
2026-05-04 07:03 40.62082 -74.43700 5025 ft 283 kts 339°
2026-05-04 07:03 40.63994 -74.44381 5595 ft 288 kts 342°
2026-05-04 07:03 40.65957 -74.44994 6093 ft 293 kts 343°
2026-05-04 07:04 40.67976 -74.45619 6684 ft 294 kts 343°
2026-05-04 07:04 40.70011 -74.46255 7252 ft 296 kts 343°
2026-05-04 07:04 40.72046 -74.46891 7777 ft 299 kts 342°
2026-05-04 07:04 40.74203 -74.47232 8213 ft 310 kts
2026-05-04 07:05 40.76373 -74.46527 8715 ft 317 kts 15°
2026-05-04 07:05 40.78438 -74.45539 9295 ft 319 kts 17°
2026-05-04 07:05 40.80519 -74.44511 9800 ft 322 kts 17°
2026-05-04 07:05 40.82629 -74.43459 10284 ft 325 kts 17°
2026-05-04 07:06 40.86902 -74.41322 11298 ft 330 kts 17°
2026-05-04 07:06 40.89097 -74.40212 11769 ft 333 kts 17°
2026-05-04 07:06 40.91179 -74.38678 12127 ft 345 kts 39°
2026-05-04 07:07 40.92757 -74.36097 12509 ft 356 kts 59°
2026-05-04 07:08 41.00919 -74.14623 14966 ft 372 kts 60°
2026-05-04 07:09 41.02079 -74.11536 14964 ft 372 kts 60°
2026-05-04 07:09 41.03259 -74.08391 14965 ft 372 kts 61°
2026-05-04 07:09 41.04445 -74.05228 14967 ft 373 kts 60°
2026-05-04 07:09 41.05637 -74.02047 14965 ft 373 kts 60°
2026-05-04 07:10 41.06823 -73.98876 14976 ft 372 kts 60°
2026-05-04 07:10 41.08006 -73.95711 14977 ft 371 kts 60°
2026-05-04 07:12 41.16343 -73.73309 15905 ft 375 kts 60°
2026-05-04 07:12 41.17548 -73.70055 16276 ft 378 kts 60°
2026-05-04 07:12 41.18745 -73.66824 16603 ft 381 kts 60°
2026-05-04 07:12 41.19920 -73.63645 16997 ft 382 kts 60°
2026-05-04 07:13 41.21119 -73.60400 17371 ft 385 kts 60°
2026-05-04 07:13 41.22312 -73.57166 17670 ft 387 kts 60°
2026-05-04 07:13 41.23540 -73.53831 18063 ft 389 kts 60°
2026-05-04 07:14 41.28492 -73.40350 19358 ft 399 kts 60°
2026-05-04 07:14 41.29747 -73.36924 19691 ft 400 kts 60°
2026-05-04 07:15 41.31002 -73.33493 20025 ft 402 kts 61°
2026-05-04 07:15 41.32288 -73.29974 20282 ft 405 kts 60°
2026-05-04 07:15 41.33579 -73.26437 20541 ft 407 kts 60°
2026-05-04 07:15 41.34863 -73.22910 20870 ft 408 kts 60°
2026-05-04 07:16 41.36162 -73.19341 21147 ft 410 kts 61°
2026-05-04 07:16 41.37487 -73.15694 21433 ft 412 kts 60°
2026-05-04 07:16 41.38811 -73.12093 21732 ft 412 kts 57°
2026-05-04 07:16 41.40339 -73.08628 22010 ft 412 kts 54°
2026-05-04 07:17 41.41864 -73.05266 22261 ft 414 kts 55°
2026-05-04 07:17 41.43373 -73.01913 22513 ft 416 kts 55°
2026-05-04 07:17 41.44910 -72.98475 22805 ft 416 kts 55°
2026-05-04 07:17 41.46423 -72.95071 23057 ft 418 kts 55°
2026-05-04 07:18 41.47937 -72.91656 23281 ft 420 kts 55°
2026-05-04 07:18 41.49434 -72.88269 23514 ft 422 kts 55°
2026-05-04 07:18 41.50922 -72.84892 23746 ft 423 kts 55°
2026-05-04 07:18 41.52409 -72.81514 23990 ft 424 kts 55°
2026-05-04 07:19 41.53911 -72.78093 24216 ft 425 kts 55°
2026-05-04 07:19 41.55418 -72.74655 24423 ft 427 kts 55°
2026-05-04 07:19 41.56948 -72.71162 24608 ft 429 kts 55°
2026-05-04 07:19 41.58488 -72.67640 24807 ft 430 kts 55°
2026-05-04 07:20 41.60035 -72.64098 25026 ft 431 kts 55°
2026-05-04 07:20 41.61567 -72.60584 25229 ft 432 kts 55°
2026-05-04 07:20 41.63086 -72.57099 25404 ft 434 kts 55°
2026-05-04 07:20 41.64619 -72.53583 25519 ft 440 kts 54°
2026-05-04 07:22 41.76444 -72.27353 25797 ft 497 kts 55°
2026-05-04 07:22 41.78246 -72.23330 25824 ft 505 kts 55°
2026-05-04 07:23 41.80117 -72.19148 25853 ft 514 kts 55°
2026-05-04 07:23 41.81999 -72.14935 25885 ft 523 kts 55°
2026-05-04 07:23 41.83889 -72.10699 25954 ft 531 kts 55°
2026-05-04 07:23 41.85805 -72.06396 26244 ft 534 kts 55°
2026-05-04 07:24 41.87717 -72.02093 26674 ft 534 kts 56°
2026-05-04 07:24 41.89639 -71.97762 27067 ft 535 kts 56°
2026-05-04 07:24 41.91571 -71.93402 27329 ft 539 kts 55°
2026-05-04 07:24 41.93495 -71.89057 27535 ft 543 kts 55°
2026-05-04 07:25 41.95442 -71.84653 27783 ft 546 kts 55°
2026-05-04 07:26 42.09824 -71.54307 28952 ft 552 kts 53°
2026-05-04 07:27 42.11868 -71.49984 29101 ft 552 kts 53°
2026-05-04 07:27 42.13926 -71.45623 29276 ft 551 kts 53°
2026-05-04 07:27 42.15985 -71.41251 29482 ft 549 kts 53°
2026-05-04 07:27 42.18024 -71.36917 29657 ft 549 kts 53°
2026-05-04 07:28 42.20078 -71.32541 29807 ft 549 kts 54°
2026-05-04 07:28 42.22125 -71.28176 29885 ft 550 kts 54°
2026-05-04 07:28 42.26255 -71.19347 30069 ft 549 kts 54°
2026-05-04 07:29 42.28289 -71.14987 30220 ft 548 kts 54°
2026-05-04 07:29 42.30315 -71.10638 30356 ft 547 kts 54°
2026-05-04 07:29 42.32351 -71.06261 30465 ft 547 kts 54°
2026-05-04 07:29 42.34343 -71.01874 30544 ft 549 kts 57°
2026-05-04 07:30 42.37269 -70.91890 30660 ft 556 kts 70°
2026-05-04 07:30 42.39487 -70.81756 30835 ft 556 kts 71°
2026-05-04 07:31 42.40575 -70.76741 30978 ft 554 kts 71°
2026-05-04 07:31 42.41649 -70.71777 31113 ft 553 kts 70°
2026-05-04 07:33 42.49126 -70.36872 31818 ft 552 kts 71°
2026-05-04 07:33 42.50181 -70.31901 31914 ft 552 kts 72°
2026-05-04 07:33 42.52285 -70.21949 32088 ft 553 kts 72°
2026-05-04 07:34 42.54394 -70.11924 32269 ft 552 kts 72°
2026-05-04 07:34 42.56485 -70.01938 32458 ft 552 kts 72°
2026-05-04 07:35 42.58574 -69.91908 32656 ft 552 kts 72°
2026-05-04 07:35 42.59616 -69.86888 32758 ft 551 kts 72°
2026-05-04 07:35 42.60647 -69.81913 32865 ft 551 kts 72°
2026-05-04 07:36 42.61674 -69.76942 32979 ft 551 kts 72°
2026-05-04 07:36 42.62708 -69.71922 33096 ft 551 kts 72°
2026-05-04 07:38 42.69840 -69.36977 33950 ft 549 kts 73°
2026-05-04 07:38 42.70862 -69.31920 34081 ft 548 kts 73°
2026-05-04 07:38 42.71881 -69.26862 34207 ft 548 kts 73°
2026-05-04 07:38 42.72905 -69.21770 34334 ft 547 kts 73°
2026-05-04 07:39 42.73923 -69.16694 34460 ft 546 kts 73°
2026-05-04 07:39 42.74937 -69.11623 34586 ft 546 kts 73°
2026-05-04 07:39 42.75930 -69.06648 34716 ft 545 kts 74°
2026-05-04 07:39 42.76939 -69.01580 34836 ft 544 kts 73°
2026-05-04 07:40 42.78968 -68.91348 34859 ft 548 kts 74°
2026-05-04 07:40 42.80968 -68.81213 34844 ft 552 kts 74°
2026-05-04 07:41 42.82967 -68.71024 34856 ft 555 kts 74°
2026-05-04 07:41 42.84960 -68.60816 34838 ft 557 kts 74°
2026-05-04 07:42 42.87040 -68.50107 34839 ft 558 kts 74°
2026-05-04 07:42 42.89164 -68.39106 34845 ft 559 kts 74°
2026-05-04 07:43 42.91268 -68.28154 34831 ft 560 kts 75°
2026-05-04 07:43 42.93387 -68.17054 34833 ft 559 kts 75°
2026-05-04 07:44 42.95506 -68.05893 34841 ft 560 kts 75°
2026-05-04 07:44 42.97612 -67.94733 34838 ft 560 kts 75°
2026-05-04 07:45 42.99736 -67.83414 34829 ft 560 kts 75°
2026-05-04 07:45 43.01868 -67.71984 34827 ft 561 kts 75°
2026-05-04 07:46 43.04002 -67.60474 34825 ft 561 kts 75°
2026-05-04 07:46 43.06173 -67.48689 34817 ft 562 kts 75°
2026-05-04 07:47 43.08292 -67.37118 34809 ft 562 kts 75°
2026-05-04 07:49 43.17694 -66.92496 34812 ft 557 kts 60°
2026-05-04 07:49 43.21644 -66.82298 34794 ft 558 kts 60°
2026-05-04 07:50 43.25530 -66.72166 34798 ft 559 kts 60°
2026-05-04 07:50 43.29375 -66.62051 34783 ft 559 kts 60°
2026-05-04 07:51 43.33297 -66.51667 34777 ft 559 kts 60°
2026-05-04 07:51 43.37375 -66.40812 34772 ft 559 kts 61°
2026-05-04 07:52 43.41340 -66.30208 34745 ft 559 kts 62°
2026-05-04 07:52 43.45284 -66.19614 34751 ft 559 kts 62°
2026-05-04 07:54 43.60830 -65.77447 34729 ft 558 kts 62°
2026-05-04 07:55 43.64573 -65.67196 34729 ft 559 kts 62°
2026-05-04 07:55 43.68348 -65.56814 34711 ft 558 kts 62°
2026-05-04 07:56 43.72127 -65.46390 34699 ft 558 kts 62°
2026-05-04 07:56 43.75766 -65.36314 34703 ft 558 kts 63°
2026-05-04 07:57 43.79483 -65.25983 34682 ft 558 kts 63°
2026-05-04 07:57 43.83013 -65.16126 34671 ft 555 kts 65°
2026-05-04 07:58 43.86517 -65.06200 34653 ft 549 kts 63°
2026-05-04 07:58 43.90004 -64.96455 34649 ft 551 kts 62°
2026-05-04 07:59 43.93704 -64.86070 34644 ft 554 kts 62°
2026-05-04 07:59 43.97416 -64.75590 34645 ft 555 kts 62°
2026-05-04 08:00 44.01136 -64.65030 34640 ft 556 kts 63°
2026-05-04 08:02 44.15429 -64.24038 34755 ft 556 kts 63°
2026-05-04 08:02 44.18926 -64.13916 34777 ft 539 kts 63°
2026-05-04 08:03 44.22441 -64.03705 34783 ft 540 kts 63°
2026-05-04 08:03 44.25903 -63.93597 34812 ft 541 kts 64°
2026-05-04 08:04 44.29407 -63.83330 34849 ft 541 kts 64°
2026-05-04 08:04 44.32848 -63.73213 34901 ft 541 kts 63°
2026-05-04 08:05 44.34532 -63.68245 35176 ft 533 kts 64°
2026-05-04 08:05 44.36222 -63.63251 35498 ft 525 kts 64°
2026-05-04 08:05 44.37934 -63.58186 35821 ft 513 kts 62°
2026-05-04 08:05 44.39590 -63.53301 36133 ft 498 kts 62°
2026-05-04 08:06 44.41207 -63.48502 36464 ft 484 kts 64°
2026-05-04 08:06 44.42795 -63.43761 36792 ft 469 kts 65°
2026-05-04 08:06 44.44289 -63.39293 37100 ft 453 kts 65°
2026-05-04 08:06 44.45761 -63.34890 37422 ft 435 kts 65°
2026-05-04 08:08 44.55726 -63.04917 35532 ft 448 kts 65°
2026-05-04 08:08 44.57122 -63.00694 35486 ft 443 kts 65°
2026-05-04 08:10 44.68137 -62.67137 34464 ft 447 kts 65°
2026-05-04 08:11 44.69493 -62.62977 34462 ft 444 kts 65°
2026-05-04 08:11 44.73599 -62.50340 34437 ft 433 kts 65°
2026-05-04 08:12 44.76259 -62.42120 34442 ft 424 kts 65°
2026-05-04 08:12 44.78875 -62.34010 34221 ft 422 kts 66°
2026-05-04 08:13 44.80213 -62.29853 33994 ft 425 kts 66°
2026-05-04 08:13 44.81565 -62.25645 33849 ft 426 kts 66°
2026-05-04 08:13 44.82850 -62.21604 34430 ft 462 kts 66°
2026-05-04 08:13 44.84271 -62.17168 34407 ft 461 kts 66°
2026-05-04 08:14 44.87187 -62.08056 34402 ft 461 kts 66°
2026-05-04 08:16 44.98975 -61.70844 34380 ft 461 kts 66°
2026-05-04 08:16 45.01896 -61.61534 34368 ft 462 kts 66°
2026-05-04 08:17 45.04822 -61.52177 34346 ft 463 kts 66°
2026-05-04 08:17 45.07746 -61.42789 34350 ft 463 kts 66°
2026-05-04 08:19 45.19190 -61.05718 34291 ft 467 kts 68°
2026-05-04 08:20 45.22035 -60.96419 34289 ft 467 kts 68°
2026-05-04 08:20 45.24774 -60.87162 34227 ft 473 kts 68°
2026-05-04 08:21 45.27676 -60.77738 34286 ft 473 kts 68°
2026-05-04 08:21 45.30564 -60.68262 34271 ft 475 kts 68°
2026-05-04 08:22 45.33460 -60.58692 34246 ft 478 kts 68°
2026-05-04 08:24 45.43686 -60.24495 34224 ft 490 kts 69°
2026-05-04 08:24 45.45194 -60.19409 34222 ft 492 kts 69°
2026-05-04 08:24 45.48113 -60.09536 34198 ft 497 kts 69°
2026-05-04 08:25 45.51098 -59.99397 34209 ft 501 kts 70°
2026-05-04 08:25 45.54087 -59.89201 34193 ft 507 kts 70°
2026-05-04 08:27 45.66521 -59.46339 34214 ft 536 kts 70°
2026-05-04 08:28 45.69704 -59.35242 34188 ft 544 kts 70°
2026-05-04 08:28 45.72919 -59.23988 34195 ft 550 kts 71°
2026-05-04 08:29 45.76180 -59.12520 34196 ft 554 kts 71°
2026-05-04 08:31 45.89181 -58.66253 34226 ft 558 kts 71°
2026-05-04 08:33 46.01838 -58.20338 34254 ft 558 kts 72°
2026-05-04 08:35 46.14362 -57.74018 34287 ft 557 kts 73°
2026-05-04 08:35 46.17456 -57.62435 34291 ft 557 kts 73°
2026-05-04 08:37 46.27825 -57.23197 34322 ft 556 kts 74°
2026-05-04 08:38 46.30883 -57.11498 34340 ft 557 kts 74°
2026-05-04 08:38 46.33945 -56.99722 34343 ft 557 kts 74°
2026-05-04 08:40 46.45965 -56.52916 34412 ft 556 kts 75°
2026-05-04 08:41 46.48937 -56.41194 34399 ft 555 kts 75°
2026-05-04 08:41 46.51907 -56.29422 34407 ft 554 kts 76°
2026-05-04 08:42 46.54848 -56.17701 34424 ft 554 kts 76°
2026-05-04 08:42 46.57811 -56.05829 34439 ft 553 kts 76°
2026-05-04 08:43 46.60721 -55.94111 34454 ft 553 kts 76°
2026-05-04 08:43 46.63598 -55.82467 34453 ft 553 kts 76°
2026-05-04 08:44 46.66478 -55.70750 34462 ft 553 kts 77°
2026-05-04 08:46 46.77823 -55.23987 34486 ft 550 kts 78°
2026-05-04 08:46 46.80627 -55.12277 34514 ft 550 kts 78°
2026-05-04 08:47 46.83398 -55.00640 34525 ft 549 kts 78°
2026-05-04 08:47 46.86161 -54.88978 34529 ft 547 kts 78°
2026-05-04 08:48 46.88874 -54.77464 34553 ft 547 kts 78°
2026-05-04 08:48 46.91515 -54.66199 34555 ft 547 kts 78°
2026-05-04 08:49 46.94177 -54.54782 34549 ft 547 kts 79°
2026-05-04 08:50 47.03290 -54.15246 34582 ft 541 kts 80°
2026-05-04 08:51 47.05891 -54.03823 34581 ft 541 kts 80°
2026-05-04 08:51 47.08436 -53.92589 34638 ft 539 kts 80°
2026-05-04 08:52 47.09702 -53.86975 34490 ft 540 kts 80°
2026-05-04 08:52 47.10979 -53.81302 34546 ft 540 kts 80°
2026-05-04 08:52 47.13504 -53.70049 34444 ft 541 kts 80°
2026-05-04 08:54 47.23542 -53.24647 34546 ft 540 kts 81°
2026-05-04 08:55 47.25952 -53.13605 34566 ft 538 kts 81°
2026-05-04 08:55 47.28310 -53.02746 34574 ft 536 kts 81°
2026-05-04 09:01 47.54346 -51.83289 34619 ft 547 kts 78°
2026-05-04 09:01 47.57243 -51.72088 34621 ft 549 kts 78°
2026-05-04 09:02 47.60007 -51.61353 34618 ft 551 kts 78°
2026-05-04 09:02 47.62736 -51.50704 34621 ft 552 kts 78°
2026-05-04 09:03 47.65477 -51.39954 34637 ft 554 kts 77°
2026-05-04 09:03 47.68335 -51.28693 34644 ft 556 kts 78°
2026-05-04 09:04 47.71126 -51.17645 34647 ft 555 kts 78°
2026-05-04 09:04 47.73846 -51.06819 34664 ft 557 kts 78°
2026-05-04 09:05 47.76573 -50.95917 34669 ft 559 kts 78°
2026-05-04 09:05 47.79290 -50.85000 34681 ft 559 kts 78°
2026-05-04 09:06 47.82004 -50.74044 34682 ft 561 kts 78°
2026-05-04 09:08 47.92757 -50.30097 34706 ft 565 kts 77°
2026-05-04 09:08 47.95460 -50.18915 34734 ft 564 kts 77°
2026-05-04 09:09 47.98140 -50.07770 34738 ft 565 kts 77°
2026-05-04 09:09 48.00819 -49.96634 34746 ft 567 kts 76°
2026-05-04 09:10 48.03633 -49.85477 34761 ft 569 kts 76°
2026-05-04 09:10 48.06442 -49.74304 34786 ft 570 kts 76°
2026-05-04 09:11 48.09247 -49.63076 34787 ft 570 kts 76°
2026-05-04 09:11 48.12023 -49.51894 34780 ft 572 kts 76°
2026-05-04 09:12 48.14798 -49.40656 34788 ft 573 kts 76°
2026-05-04 09:14 48.25917 -48.95026 34818 ft 578 kts 75°
2026-05-04 09:14 48.28699 -48.83458 34822 ft 579 kts 75°
2026-05-04 09:15 48.31517 -48.71680 34843 ft 578 kts 75°
2026-05-04 09:15 48.34415 -48.59499 34847 ft 579 kts 75°
2026-05-04 09:17 48.47179 -48.05022 34862 ft 576 kts 74°
2026-05-04 09:18 48.49898 -47.93240 34863 ft 576 kts 74°
2026-05-04 09:18 48.52622 -47.81366 34889 ft 576 kts 73°
2026-05-04 09:19 48.55249 -47.69850 34877 ft 576 kts 73°
2026-05-04 09:19 48.57901 -47.58169 34898 ft 577 kts 73°
2026-05-04 09:20 48.60521 -47.46558 34899 ft 576 kts 73°
2026-05-04 09:20 48.63110 -47.35024 34907 ft 577 kts 73°
2026-05-04 09:21 48.65709 -47.23382 34891 ft 576 kts 73°
2026-05-04 09:21 48.68311 -47.11663 34925 ft 576 kts 74°
2026-05-04 09:22 48.70918 -46.99854 34928 ft 576 kts 74°
2026-05-04 09:22 48.73483 -46.88164 34935 ft 575 kts 73°
2026-05-04 09:23 48.76024 -46.76526 34948 ft 576 kts 73°
2026-05-04 09:23 48.78557 -46.64852 34943 ft 577 kts 73°
2026-05-04 09:25 48.88562 -46.18097 34956 ft 576 kts 72°
2026-05-04 09:26 48.91021 -46.06440 34971 ft 576 kts 73°
2026-05-04 09:26 48.93477 -45.94726 34968 ft 576 kts 72°
2026-05-04 09:27 48.95928 -45.82971 34983 ft 574 kts 72°
2026-05-04 09:27 48.98327 -45.71396 34980 ft 572 kts 72°
2026-05-04 09:28 49.00736 -45.59707 34997 ft 570 kts 72°
2026-05-04 09:28 49.03110 -45.48119 34995 ft 569 kts 72°
2026-05-04 09:29 49.05454 -45.36613 35008 ft 569 kts 72°
2026-05-04 09:29 49.07791 -45.25068 34996 ft 568 kts 73°
2026-05-04 09:30 49.10136 -45.13421 35005 ft 567 kts 72°
2026-05-04 09:30 49.12457 -45.01819 35016 ft 564 kts 72°
2026-05-04 09:31 49.14763 -44.90227 35021 ft 565 kts 72°
2026-05-04 09:31 49.17076 -44.78531 35017 ft 565 kts 72°
2026-05-04 09:32 49.19378 -44.66818 35027 ft 565 kts 71°
2026-05-04 09:34 49.28415 -44.20132 35053 ft 568 kts 72°
2026-05-04 09:34 49.30669 -44.08304 35075 ft 567 kts 72°
2026-05-04 09:35 49.32910 -43.96473 35087 ft 569 kts 71°
2026-05-04 09:35 49.35121 -43.84728 35082 ft 569 kts 72°